This demonstration page uses our WeatherBlox Daily Observations layout. Learn more.

Left ArrowRight Arrow

Hourly Observations for November 24, 2018

Temp ( °F °C ) Dew Point ( °F °C ) Humidity (%) Winds ( mph kmh ) Pressure ( in mb ) Visibility ( mi km ) Precip ( " mm )
12:53 am 00:53 Cloudy 27 -2.8 23 -5 85 85 WNW 3 6 29.63 1003 10 16 0.00 0.00
1:53 am 01:53 Cloudy 27 -2.8 24 -4.4 89 89 SW 5 7 29.63 1003 10 16 0.00 0.00
2:53 am 02:53 Mostly Clear 24 -4.4 21 -6.1 88 88 W 8 13 29.66 1005 10 16 0.00 0.00
3:53 am 03:53 Clear 21 -6.1 19 -7.2 92 92 WNW 8 13 29.69 1006 10 16 0.00 0.00
4:53 am 04:53 Mostly Clear 21 -6.1 20 -6.7 96 96 WNW 5 7 29.73 1007 10 16 0.00 0.00
5:17 am 05:17 Mostly Cloudy 22 -5.6 20 -6.7 92 92 S 6 9 29.85 1011 10 16 0.00 0.00
5:42 am 05:42 Cloudy 25 -4 23 -5 93 93 S 5 7 29.85 1011 10 16 0.00 0.00
5:53 am 05:53 Cloudy 25 -3.9 24 -4.4 96 96 S 6 9 29.78 1008 10 16 0.00 0.00
6:08 am 06:08 Cloudy 27 -3 25 -4 93 93 S 6 9 29.85 1011 10 16 0.00 0.00
6:53 am 06:53 Cloudy 28 -2.2 26 -3.3 92 92 SW 3 6 29.83 1010 10 16 0.00 0.00
7:37 am 07:37 Cloudy 29 -1.7 27 -2.8 92 92 WSW 5 7 29.88 1012 10 16 0.00 0.00
7:53 am 07:53 Cloudy 30 -1.1 28 -2.2 92 92 W 6 9 29.85 1011 10 16 0.00 0.00
8:53 am 08:53 Cloudy 31 -0.6 29 -1.7 92 92 W 6 9 29.88 1012 7 11 0.00 0.03
9:39 am 09:39 Cloudy with Light Snow 32 0 30 -1.1 92 92 NW 8 13 29.91 1013 5 8 0.00 0.03
9:53 am 09:53 Cloudy with Mist and Fog 31 -0.6 29 -1.7 92 92 N 8 13 29.93 1014 4 6 0.00 0.03
10:11 am 10:11 Cloudy with Light Snow 30 -1.1 29 -1.7 96 96 N 6 9 29.97 1015 3 4 0.00 0.03
10:26 am 10:26 Cloudy with Mist and Fog 30 -1.1 29 -1.7 96 96 N 5 7 30.00 1016 3 5 0.01 0.25
10:53 am 10:53 Cloudy 29 -1.7 27 -2.8 92 92 NE 9 15 29.98 1015 7 11 0.01 0.25
11:53 am 11:53 Cloudy 28 -2.2 25 -3.9 88 88 NNE 9 15 30.01 1016 10 16 0.00 0.00
12:53 pm 12:53 Cloudy 28 -2.2 25 -3.9 88 88 NE 9 15 30.04 1017 8 13 0.00 0.00
1:32 pm 13:32 Cloudy 28 -2 25 -4 86 86 NE 5 7 30.09 1019 10 16 0.00 0.00
1:53 pm 13:53 Cloudy 28 -2.2 25 -3.9 88 88 N 6 9 30.07 1018 10 16 0.00 0.00
2:25 pm 14:25 Cloudy 28 -2.2 24 -4.4 85 85 NNE 6 9 30.15 1021 10 16 0.00 0.00
2:53 pm 14:53 Cloudy 28 -2.2 23 -5 81 81 NNE 5 7 30.10 1019 10 16 0.00 0.00
3:23 pm 15:23 Cloudy 28 -2.2 24 -4.4 85 85 NNE 5 7 30.18 1022 10 16 0.00 0.00
3:53 pm 15:53 Cloudy 28 -2.2 24 -4.4 85 85 NNE 3 6 30.14 1021 10 16 0.00 0.00
4:53 pm 16:53 Cloudy 27 -2.8 24 -4.4 89 89 Calm 30.16 1021 10 16 0.00 0.00
5:53 pm 17:53 Cloudy 27 -2.8 23 -5 85 85 NW 8 13 30.18 1022 10 16 0.00 0.00
6:53 pm 18:53 Cloudy 27 -2.8 22 -5.6 81 81 NNW 3 6 30.19 1022 10 16 0.00 0.00
7:17 pm 19:17 Cloudy 26 -3.3 22 -5.6 84 84 Calm 30.21 1023 10 16 0.00 0.00
7:39 pm 19:39 Cloudy 27 -2.8 23 -5 85 85 SSW 3 6 30.21 1023 10 16 0.00 0.00
7:53 pm 19:53 Cloudy 27 -2.8 22 -5.6 81 81 S 5 7 30.19 1022 10 16 0.00 0.00
8:04 pm 20:04 Cloudy 27 -2.8 23 -5 85 85 SW 3 6 30.21 1023 10 16 0.00 0.00
8:24 pm 20:24 Cloudy 27 -3 21 -6 80 80 WSW 3 6 30.21 1023 10 16 0.00 0.00
8:53 pm 20:53 Cloudy 27 -2.8 23 -5 85 85 WSW 3 6 30.19 1022 10 16 0.00 0.00
9:35 pm 21:35 Cloudy 27 -2.8 23 -5 85 85 SW 7 11 30.24 1024 10 16 0.00 0.00
9:53 pm 21:53 Cloudy 27 -2.8 23 -5 85 85 WSW 7 11 30.19 1023 10 16 0.00 0.00
10:53 pm 22:53 Partly Cloudy 22 -5.6 21 -6.1 96 96 SW 3 6 30.21 1023 10 16 0.00 0.00
11:53 pm 23:53 Mostly Clear 21 -6.1 20 -6.7 96 96 WSW 5 7 30.21 1023 8 13 0.00 0.00

Powered by AerisWeather